This is the latest recevied weather packets stored in our database for station/object KQ4WWD. If no packets are shown the sender has not sent any weather packets the latest 10 day(s).
| Time | Temp. | Humidity | Pressure | Rain* | Wind** | Luminosity | Snow |
|---|---|---|---|---|---|---|---|
| 1788294019 | 26.67° C | 88% | 1015 hPa | 0 mm | - | 173 W/m² | - |
| 1788293714 | 26.67° C | 89% | 1015.4 hPa | 0 mm | - | 173 W/m² | - |
| 1788293408 | 26.67° C | 89% | 1015.3 hPa | 0 mm | - | 179 W/m² | - |
| 1788293103 | 26.11° C | 89% | 1015.4 hPa | 0 mm | - | 196 W/m² | - |
| 1788292802 | 26.67° C | 90% | 1015.6 hPa | 0 mm | - | 207 W/m² | - |
| 1788292501 | 26.11° C | 90% | 1015.9 hPa | 0 mm | - | 247 W/m² | - |
| 1788292200 | 26.11° C | 91% | 1015.9 hPa | 0 mm | - | 333 W/m² | - |
| 1788291895 | 26.11° C | 91% | 1015.7 hPa | 0 mm | - | 299 W/m² | - |
| 1788291591 | 26.67° C | 92% | 1015.9 hPa | 0 mm | - | 317 W/m² | - |
| 1788291291 | 26.67° C | 92% | 1015.7 hPa | 1.78 mm | - | 442 W/m² | - |
| 1788290990 | 26.67° C | 91% | 1016 hPa | 3.05 mm | - | 840 W/m² | - |
| 1788290686 | 26.67° C | 91% | 1016 hPa | 6.1 mm | - | 801 W/m² | - |
| 1788290382 | 27.22° C | 90% | 1016.1 hPa | 4.32 mm | - | 873 W/m² | - |
| 1788290078 | 27.78° C | 87% | 1016 hPa | 0 mm | - | 535 W/m² | - |
| 1788289774 | 28.33° C | 86% | 1016.2 hPa | 0 mm | - | 690 W/m² | - |
| 1788289474 | 27.78° C | 87% | 1016.4 hPa | 0 mm | - | 307 W/m² | - |
| 1788289172 | 28.89° C | 85% | 1016.3 hPa | 0 mm | - | 184 W/m² | - |
| 1788288871 | 28.89° C | 82% | 1016.4 hPa | 0 mm | - | 203 W/m² | - |
| 1788288566 | 28.89° C | 85% | 1016.3 hPa | 0 mm | - | 347 W/m² | - |
| 1788288261 | 28.89° C | 85% | 1016.3 hPa | 0 mm | - | 321 W/m² | - |
| 1788287957 | 29.44° C | 83% | 1016.1 hPa | 0 mm | - | 281 W/m² | - |
| 1788287656 | 30° C | 82% | 1016 hPa | 0 mm | - | 252 W/m² | - |
| 1788287352 | 30.56° C | 80% | 1016 hPa | 0 mm | - | 232 W/m² | - |
| 1788287047 | 30° C | 80% | 1015.8 hPa | 0 mm | - | 212 W/m² | - |
| 1788286743 | 30° C | 79% | 1016.1 hPa | 0 mm | - | 207 W/m² | - |
* Rain latest hour (hover to see other rain measurements)
** Current wind speed in m/s (hover to see current wind gust speed)